Nellis AFB, NV

8:03 AM PDT on August 23, 2017 (GMT -0700)
Nellis Air Force Base

Weather History for KLSV - November, 2012

Change the Weather History Date:

Sunday, November 25, 2012

  Actual Average Record
Temperature  
Mean Temperature 53 °F -  
Max Temperature 67 °F 60 °F 71 °F (1998)
Min Temperature 39 °F 38 °F 30 °F (2010)
Degree Days  
Heating Degree Days 12    
Growing Degree Days 3 (Base 50)    
Moisture  
Dew Point 23 °F    
Average Humidity 34    
Maximum Humidity 49    
Minimum Humidity 19    
Precipitation  
Precipitation 0.00 in - - ()
Sea Level Pressure  
Sea Level Pressure 29.95 in    
Wind  
Wind Speed 1 mph (NNE)    
Max Wind Speed 6 mph    
Max Gust Speed -    
Visibility 10 miles    
Events      
Averages and records for this station are not official NWS values.
T = Trace of Precipitation, MM = Missing Value Source: NWS Daily Summary

Daily Weather History Graph

Daily Weather History Graph

Search for Another Location

Airport or City:

Trip Planner

Search our weather history database for the weather conditions in past years. The results will help you decide how hot, cold, wet, or windy it might be!

Date:

Astronomy

Nov. 25, 2012 Rise Set
Actual Time 6:27 AM PST 4:26 PM PST
Civil Twilight 5:59 AM PST 4:54 PM PST
Nautical Twilight 5:28 AM PST 5:26 PM PST
Astronomical Twilight 4:57 AM PST 5:57 PM PST
Moon 2:43 PM PST (11/25) 3:48 AM PST (11/25)
Length of Visible Light 10h 55m
Length of Day
9h 59m
Waxing Gibbous, 93% of the Moon is Illuminated
Nov 25
Waxing Gibbous
Nov 28
Full
Dec 6
Last Quarter
Dec 13
New
Dec 19
First Quarter

Hourly Weather History & Observations

Time (PST) Temp. Windchill Dew Point Humidity Pressure Visibility Wind Dir Wind Speed Gust Speed Precip Events Conditions
12:58 AM 44.4 °F - 21.6 °F 40% 29.98 in 10.0 mi Calm Calm - N/A   Clear
1:58 AM 41.9 °F 39.0 °F 21.4 °F 44% 29.98 in 10.0 mi ENE 4.6 mph - N/A   Clear
2:58 AM 41.5 °F - 21.2 °F 44% 29.97 in 10.0 mi NNE 2.3 mph - N/A   Clear
3:58 AM 40.5 °F - 21.9 °F 48% 29.98 in 10.0 mi Calm Calm - N/A   Clear
4:58 AM 40.6 °F - 21.6 °F 47% 29.98 in 10.0 mi Calm Calm - N/A   Clear
5:58 AM 39.9 °F - 21.2 °F 47% 29.99 in 10.0 mi Calm Calm - N/A   Clear
6:58 AM 39.6 °F - 21.6 °F 49% 30.00 in 10.0 mi North 1.2 mph - N/A   Clear
7:58 AM 41.0 °F - 21.9 °F 47% 30.02 in 10.0 mi Calm Calm - N/A   Clear
8:58 AM 48.2 °F - 23.9 °F 39% 30.01 in 10.0 mi Calm Calm - N/A   Clear
9:58 AM 55.9 °F - 25.3 °F 31% 30.00 in 10.0 mi WSW 1.2 mph - N/A   Clear
10:58 AM 59.9 °F - 24.8 °F 26% 29.98 in 10.0 mi Calm Calm - N/A   Clear
11:58 AM 65.5 °F - 23.9 °F 21% 29.94 in 10.0 mi Calm Calm - N/A   Clear
12:58 PM 66.0 °F - 23.7 °F 20% 29.91 in 10.0 mi NNE 1.2 mph - N/A   Clear
1:58 PM 67.6 °F - 23.4 °F 19% 29.88 in 10.0 mi Calm Calm - N/A   Clear
2:58 PM 67.8 °F - 24.4 °F 19% 29.87 in 10.0 mi SW 1.2 mph - N/A   Clear
3:58 PM 66.7 °F - 25.9 °F 21% 29.87 in 10.0 mi SSW 3.5 mph - N/A   Clear
4:58 PM 65.5 °F - 25.2 °F 22% 29.87 in 10.0 mi Variable 1.2 mph - N/A   Clear
5:58 PM 55.8 °F - 24.1 °F 29% 29.90 in 10.0 mi North 4.6 mph - N/A   Clear
6:58 PM 52.7 °F - 21.7 °F 30% 29.92 in 10.0 mi North 5.8 mph - N/A   Clear
7:58 PM 52.3 °F - 22.5 °F 31% 29.94 in 10.0 mi ESE 1.2 mph - N/A   Clear
8:58 PM 48.6 °F - 20.8 °F 34% 29.96 in 10.0 mi Calm Calm - N/A   Clear
9:58 PM 48.2 °F - 21.2 °F 34% 29.96 in 10.0 mi NNE 4.6 mph - N/A   Clear
10:58 PM 46.8 °F - 20.7 °F 36% 29.96 in 10.0 mi North 3.5 mph - N/A   Scattered Clouds
11:58 PM 43.9 °F 42.3 °F 20.7 °F 40% 29.98 in 10.0 mi NNE 3.5 mph - N/A   Overcast